Nashville, TN

7:01 AM CST on December 15, 2019 (GMT -0600)
Nashville International

Weather History for KBNA - October, 2019

Change the Weather History Date:

Thursday, October 24, 2019

  Actual Average Record
Temperature  
Mean Temperature 58 °F 58 °F  
Max Temperature 73 °F 69 °F 85 °F (2000)
Min Temperature 42 °F 46 °F 28 °F (1981)
Degree Days  
Heating Degree Days 8    
Month to date heating degree days 92  
Since 1 July heating degree days 92  
Cooling Degree Days 0    
Month to date cooling degree days 107  
Year to date cooling degree days 2278  
Growing Degree Days 8 (Base 50)    
Moisture  
Dew Point 38 °F    
Average Humidity 56    
Maximum Humidity 83    
Minimum Humidity 23    
Precipitation  
Precipitation 0.00 in 0.10 in 1.63 in (2008)
Month to date precipitation 3.18 2.31  
Year to date precipitation 50.60 37.97  
Sea Level Pressure  
Sea Level Pressure 30.23 in    
Wind  
Wind Speed 3 mph ()    
Max Wind Speed 10 mph    
Max Gust Speed 15 mph    
Visibility 10.0 miles    
Events      
T = Trace of Precipitation, MM = Missing Value Source: Averaged Metar Reports

Daily Weather History Graph

Daily Weather History Graph

Search for Another Location

Airport or City:

Astronomy

Oct. 24, 2019 Rise Set
Actual Time 7:01 AM CDT 5:59 PM CDT
Civil Twilight 6:35 AM CDT 6:25 PM CDT
Nautical Twilight 6:05 AM CDT 6:55 PM CDT
Astronomical Twilight 5:35 AM CDT 7:25 PM CDT
Moon 2:42 AM CDT (10/24) 4:17 PM CDT (10/24)
Length of Visible Light 11h 50m
Length of Day
10h 58m
Waning Crescent, 16% of the Moon is Illuminated
Oct 24
Waning Crescent
Oct 27
New
Nov 4
First Quarter
Nov 12
Full
Nov 19
Last Quarter

Hourly Weather History & Observations

Time (CDT) Temp. Windchill Dew Point Humidity Pressure Visibility Wind Dir Wind Speed Gust Speed Precip Events Conditions
12:53 AM 46.0 °F 43.9 °F 39.0 °F 76% 30.19 in 10.0 mi South 4.6 mph - N/A   Clear
1:53 AM 46.0 °F 43.1 °F 39.0 °F 76% 30.19 in 10.0 mi South 5.8 mph - N/A   Clear
2:53 AM 45.0 °F - 37.0 °F 74% 30.21 in 10.0 mi Calm Calm - N/A   Clear
3:53 AM 45.0 °F - 37.0 °F 74% 30.22 in 10.0 mi Calm Calm - N/A   Clear
4:53 AM 43.0 °F - 37.9 °F 82% 30.22 in 10.0 mi Calm Calm - N/A   Clear
5:53 AM 44.1 °F - 37.0 °F 76% 30.24 in 10.0 mi Calm Calm - N/A   Clear
6:53 AM 43.0 °F 41.3 °F 36.0 °F 76% 30.25 in 10.0 mi East 3.5 mph - N/A   Clear
7:53 AM 44.1 °F 42.5 °F 39.0 °F 82% 30.27 in 10.0 mi SSE 3.5 mph - N/A   Clear
8:53 AM 50.0 °F - 41.0 °F 71% 30.29 in 9.0 mi South 3.5 mph - N/A   Clear
9:53 AM 59.0 °F - 39.9 °F 49% 30.29 in 10.0 mi Calm Calm - N/A   Clear
10:53 AM 64.0 °F - 36.0 °F 35% 30.28 in 10.0 mi ESE 4.6 mph - N/A   Clear
11:53 AM 68.0 °F - 35.1 °F 30% 30.25 in 10.0 mi SSE 5.8 mph - N/A   Clear
12:53 PM 71.1 °F - 37.0 °F 29% 30.23 in 10.0 mi Calm Calm - N/A   Clear
1:53 PM 72.0 °F - 32.0 °F 23% 30.20 in 10.0 mi NE 5.8 mph - N/A   Partly Cloudy
2:53 PM 72.0 °F - 32.0 °F 23% 30.19 in 10.0 mi ENE 5.8 mph - N/A   Partly Cloudy
3:53 PM 73.0 °F - 34.0 °F 24% 30.17 in 10.0 mi ENE 9.2 mph - N/A   Partly Cloudy
4:53 PM 71.1 °F - 34.0 °F 26% 30.18 in 10.0 mi ENE 6.9 mph - N/A   Partly Cloudy
5:53 PM 64.9 °F - 37.0 °F 36% 30.19 in 10.0 mi NNE 8.1 mph - N/A   Partly Cloudy
7:53 PM 63.0 °F - 37.9 °F 40% 30.22 in 10.0 mi NNE 3.5 mph - N/A   Partly Cloudy
8:53 PM 55.9 °F - 41.0 °F 57% 30.22 in 10.0 mi Calm Calm - N/A   Partly Cloudy
9:53 PM 53.1 °F - 42.1 °F 66% 30.25 in 10.0 mi SSE 3.5 mph - N/A   Clear
10:53 PM 51.1 °F - 44.1 °F 77% 30.24 in 10.0 mi Calm Calm - N/A   Clear
11:53 PM 51.1 °F - 44.1 °F 77% 30.24 in 10.0 mi Calm Calm - N/A   Clear